Content
SEND FEEDBACK

Daily
Averages
Monthly
Summary
Bosnia and Herzegovina

ILIDZA, BOSNIA AND HERZEGOVINA


Home > Europe > Bosnia and Herzegovina
Elevation: 511 meters     Latitude: 43 49N     Longitude: 018 19E

WEATHER
 
SELECT A DAY
Number of Records: 178,096;   Date Range: 2/20/97 - 9/15/14
 
SHARE

PRINT THIS DATA

[ ← Previous Day ]
WEATHER ALMANAC - 25 APRIL, 2014
[ Next Day → ]
[ °F ]   °C
Weather ElementAverageHighLow
Temperature13.8 °C19 °C (3:00 pm)11 °C (1:00 am)
Dewpoint12 °C14 °C (2:30 pm)11 °C (1:00 am)
Humidity90 %100 % (1:00 am)60 % (3:00 pm)
Barometer1011.5 hPa1012.2 hPa (1:00 am)1010.2 hPa (2:00 pm)
Wind Speed3.7 km/h13 km/h (3:30 pm)
Weather ElementAverage
Visibility7.7 km
Wind DirectionENE (55.1 °)

Weather ElementTotal
Precipitation---
Heating Degree Days3.3 (Base 18.3)
Growing Degree Days5 (Base 10)
Averaged from 41 records on 25 April, 2014
WEATHER CONDITIONS BREAKOUT
WIND DIRECTION BREAKOUT
WEATHER BY HOUR - 25 APRIL, 2014
[ °F ]   °C
Local TimeTemperatureDewpointHumidityBarometerVisibilityWind DirectionWind SpeedGust SpeedPrecipitationEventsConditions
1:00 AM11 °C11 °C100 %1012.2 hPa6.9 kmVariable3.7 km/hMostly Cloudy
2:00 AM11 °C11 °C100 %1012.2 hPa6.9 kmVariable3.7 km/hMostly Cloudy
3:00 AM11 °C11 °C100 %1012.2 hPa6 kmVariable1.9 km/hRainLight Rain
4:00 AM11 °C11 °C100 %1011.2 hPa6 kmVariable1.9 km/hMostly Cloudy
5:00 AM11 °C11 °C100 %1012.2 hPa6 kmVariable1.9 km/hMostly Cloudy
5:30 AM11 °C11 °C100 %1012.2 hPa6 kmVariable1.9 km/hMostly Cloudy
6:00 AM11 °C11 °C100 %1012.2 hPa8 kmVariable3.7 km/hMostly Cloudy
6:30 AM11 °C11 °C100 %1012.2 hPa8 kmCalmMostly Cloudy
7:00 AM11 °C11 °C100 %1012.2 hPa8 kmCalmRainLight Rain
7:30 AM12 °C11 °C94 %1012.2 hPa8 kmVariable1.9 km/hMostly Cloudy
8:00 AM12 °C12 °C100 %1012.2 hPa5 kmVariable1.9 km/hMostly Cloudy
8:30 AM13 °C12 °C94 %1012.2 hPa6 kmCalmMostly Cloudy
9:00 AM13 °C13 °C100 %1012.2 hPa6 kmVariable3.7 km/hMostly Cloudy
9:30 AM14 °C13 °C94 %1012.2 hPa6.9 kmVariable3.7 km/hMostly Cloudy
10:00 AM15 °C13 °C88 %1012.2 hPa8 kmWest (260°)5.6 km/hScattered Clouds
10:30 AM16 °C13 °C82 %1012.2 hPa8 kmVariable3.7 km/hScattered Clouds
11:00 AM16 °C12 °C77 %1012.2 hPa8 kmVariable1.9 km/hMostly Cloudy
11:30 AM16 °C12 °C77 %1012.2 hPa8 kmVariable1.9 km/hMostly Cloudy
12:00 PM16 °C11 °C72 %1011.2 hPa8 kmVariable1.9 km/hMostly Cloudy
12:30 PM17 °C12 °C72 %1011.2 hPa8 kmVariable1.9 km/hMostly Cloudy
1:00 PM18 °C11 °C64 %1011.2 hPa10 kmVariable3.7 km/hMostly Cloudy
1:30 PM18 °C12 °C68 %1011.2 hPa10 kmNorth (360°)5.6 km/hMostly Cloudy
2:00 PM18 °C13 °C73 %1010.2 hPa10 kmNNE (20°)5.6 km/hRainLight Rain
2:30 PM18 °C14 °C77 %1010.2 hPa10 kmVariable3.7 km/hRainLight Rain Showers
3:00 PM19 °C11 °C60 %1010.2 hPa10 kmVariable3.7 km/hScattered Clouds
3:30 PM18 °C12 °C68 %1010.2 hPa10 kmNNW (340°)13 km/hScattered Clouds
4:00 PM17 °C12 °C72 %1010.2 hPa10 kmNW (320°)13 km/hScattered Clouds
4:30 PM17 °C13 °C77 %1010.2 hPa10 kmWNW (290°)9.3 km/hMostly Cloudy
5:00 PM15 °C14 °C94 %1010.2 hPa6.9 kmNW (310°)9.3 km/hRainLight Rain Showers
5:30 PM14 °C13 °C94 %1010.2 hPa6 kmVariable1.9 km/hRainRain
6:00 PM14 °C14 °C100 %1011.2 hPa6.9 kmSE (140°)5.6 km/hRainRain
6:30 PM13 °C13 °C100 %1011.2 hPa6.9 kmESE (110°)9.3 km/hRainRain
7:00 PM13 °C12 °C94 %1011.2 hPa6.9 kmESE (110°)5.6 km/hRainRain
7:30 PM12 °C12 °C100 %1011.2 hPa8 kmVariable1.9 km/hRainRain
8:00 PM12 °C12 °C100 %1011.2 hPa8 kmVariable3.7 km/hRainLight Rain
8:30 PM12 °C12 °C100 %1011.2 hPa8 kmVariable1.9 km/hRainLight Rain
9:00 PM12 °C12 °C100 %1011.2 hPa8 kmVariable1.9 km/hRainLight Rain
9:30 PM12 °C12 °C100 %1011.2 hPa8 kmCalmRainLight Rain
10:00 PM12 °C12 °C100 %1011.2 hPa8 kmCalmRainLight Rain
10:30 PM12 °C12 °C100 %1011.2 hPa6 kmVariable1.9 km/hMostly Cloudy
11:00 PM12 °C12 °C100 %1011.2 hPa6 kmVariable3.7 km/hMostly Cloudy
Hourly data recorded from LQSA, located 0 kilometers away from Ilidza, Bosnia and Herzegovina







STORIES FROM OUR PARTNERS